Total_Precipitation_Accumulation
0.54 0.65 0.87 0.85 0.68 0.61 0.62 0.64 0.64 0.60 0.55 0.58 0.58 0.56 0.52 0.45 0.40 0.39 0.40 0.41 0.42 0.49 0.57 0.66 0.69 0.69 0.77 0.85 0.95 1.01 1.05 1.14 1.29 1.51 1.67 1.69 1.71 1.76 1.92 1.99 1.94 1.52 1.44
0.30 0.43 0.69 0.73 0.59 0.56 0.56 0.57 0.58 0.54 0.52 0.51 0.56 0.61 0.58 0.55 0.47 0.44 0.43 0.45 0.50 0.55 0.57 0.58 0.65 0.62 0.69 0.77 0.87 0.91 0.99 1.17 1.59 1.92 2.07 1.98 1.98 1.97 2.02 1.96 1.91 1.52 1.37
0.20 0.24 0.38 0.56 0.54 0.50 0.49 0.51 0.53 0.51 0.48 0.46 0.49 0.54 0.53 0.53 0.47 0.43 0.46 0.49 0.55 0.56 0.52 0.60 0.64 0.61 0.68 0.77 0.85 0.85 1.01 1.33 1.92 2.51 2.63 2.18 1.82 2.00 2.04 1.96 1.74 1.37 1.19
0.16 0.18 0.20 0.38 0.46 0.44 0.43 0.43 0.47 0.44 0.38 0.38 0.41 0.46 0.46 0.50 0.48 0.44 0.46 0.49 0.53 0.51 0.53 0.63 0.63 0.66 0.66 0.69 0.80 0.98 1.20 1.44 1.96 2.40 2.45 1.79 1.43 1.50 1.71 1.54 1.36 1.19 0.99
0.20 0.18 0.23 0.32 0.33 0.37 0.38 0.39 0.42 0.43 0.39 0.36 0.36 0.42 0.44 0.48 0.48 0.46 0.50 0.52 0.55 0.56 0.55 0.58 0.64 0.72 0.71 0.68 0.79 1.04 1.37 1.67 1.96 2.11 1.77 1.97 1.87 1.52 1.41 1.26 1.23 1.02 0.79
0.21 0.17 0.24 0.30 0.28 0.30 0.32 0.34 0.38 0.39 0.38 0.38 0.39 0.42 0.46 0.51 0.54 0.50 0.46 0.51 0.58 0.62 0.63 0.65 0.70 0.74 0.70 0.67 0.78 1.05 1.38 1.77 1.87 1.36 1.07 1.43 1.43 1.36 1.28 1.23 1.11 0.93 0.76
0.25 0.18 0.23 0.36 0.33 0.31 0.34 0.37 0.39 0.39 0.40 0.39 0.41 0.43 0.50 0.55 0.54 0.51 0.50 0.54 0.59 0.64 0.66 0.70 0.69 0.71 0.73 0.75 0.80 1.01 1.42 1.77 1.61 1.06 0.88 1.14 1.08 1.14 1.23 1.24 1.15 0.97 0.77
0.33 0.24 0.27 0.41 0.43 0.38 0.39 0.41 0.42 0.38 0.40 0.41 0.43 0.46 0.51 0.54 0.57 0.59 0.61 0.63 0.59 0.65 0.68 0.67 0.66 0.63 0.66 0.79 0.91 1.01 1.33 1.44 1.15 0.95 0.86 0.92 0.78 1.06 1.20 1.11 1.05 0.94 0.83
0.60 0.49 0.41 0.42 0.43 0.44 0.49 0.51 0.46 0.42 0.44 0.44 0.49 0.50 0.51 0.52 0.55 0.58 0.69 0.73 0.66 0.68 0.69 0.71 0.68 0.69 0.71 0.83 0.95 1.09 1.32 1.50 1.29 1.15 0.90 0.85 0.74 1.06 1.30 1.12 0.95 0.84 0.84
1.21 1.00 0.75 0.54 0.56 0.51 0.52 0.55 0.52 0.46 0.46 0.50 0.52 0.50 0.57 0.65 0.68 0.77 0.79 0.75 0.78 0.83 0.86 0.89 0.84 0.80 0.91 1.01 1.11 1.23 1.38 1.36 1.26 1.42 1.18 0.83 0.85 1.16 1.38 1.41 1.20 1.00 0.92
1.56 1.38 1.23 1.00 0.74 0.75 0.70 0.60 0.70 0.65 0.63 0.73 0.86 0.82 0.93 1.21 1.15 1.24 1.05 0.97 1.05 1.21 1.28 1.29 1.26 1.22 1.21 1.17 1.32 1.49 1.40 1.32 1.53 1.70 1.39 1.01 1.12 1.50 1.64 1.70 1.54 1.40 1.29
1.59 1.41 1.41 1.35 1.06 0.95 0.89 1.07 1.33 1.19 1.20 1.26 1.48 1.36 1.58 1.72 1.58 1.14 1.21 1.33 1.47 1.80 1.93 1.96 1.98 1.82 1.62 1.50 1.65 1.68 1.47 1.49 1.63 1.45 1.26 1.15 1.29 1.66 1.93 1.98 1.80 1.58 1.51
1.82 1.70 1.41 1.52 1.37 1.32 1.40 1.46 1.59 1.69 1.68 1.66 1.75 1.76 1.96 1.81 1.54 1.41 1.67 2.00 2.17 2.33 2.52 2.59 2.55 2.16 2.15 2.32 2.31 2.09 1.98 1.84 1.85 1.55 1.19 1.31 1.46 1.78 2.08 2.15 1.96 1.81 1.65
2.12 2.01 1.88 1.85 1.84 1.79 1.77 1.67 1.56 1.42 1.45 1.58 1.72 1.74 1.94 2.01 2.03 2.02 2.12 2.22 2.40 2.73 3.10 3.05 3.04 2.86 2.91 2.78 2.58 2.54 2.36 2.05 2.18 2.19 1.67 1.57 1.70 2.05 2.23 2.23 2.10 1.96 1.92
2.83 2.67 2.66 2.71 2.50 2.24 2.10 1.75 1.44 1.34 1.22 1.32 1.42 1.52 1.59 1.85 2.09 2.14 2.00 2.03 2.04 2.26 2.66 3.12 3.11 3.29 3.33 3.03 2.62 2.44 2.47 2.33 2.29 2.21 1.79 1.88 2.10 2.16 2.17 2.15 2.12 2.05 2.05
3.81 3.63 3.42 3.46 3.00 2.60 2.32 1.91 1.64 1.40 1.37 1.29 1.22 1.26 1.46 1.67 1.91 1.88 1.85 2.03 2.09 2.05 2.21 2.60 2.81 3.13 3.15 2.84 2.40 2.22 2.20 2.24 2.13 2.10 1.83 1.85 1.98 1.87 1.89 2.12 2.32 2.37 2.30
4.92 4.53 3.93 3.65 3.30 2.98 2.68 2.19 1.78 1.56 1.34 1.30 1.23 1.21 1.26 1.42 1.63 1.62 1.68 1.70 1.77 1.75 1.80 1.96 2.19 2.46 2.47 2.38 2.32 2.27 2.20 2.10 1.93 1.91 1.96 1.88 1.65 1.70 1.79 1.93 2.12 2.24 2.40
5.72 5.13 4.39 3.69 3.70 3.51 3.15 2.49 1.99 1.66 1.50 1.36 1.27 1.17 1.07 1.12 1.13 1.22 1.25 1.24 1.26 1.17 1.27 1.55 1.65 1.85 2.11 2.25 2.37 2.24 2.16 2.19 1.99 1.93 1.90 1.89 1.85 1.57 1.79 1.87 1.87 1.92 2.20
5.88 5.68 5.04 4.82 4.57 3.91 3.14 2.51 2.06 1.76 1.58 1.40 1.32 1.21 1.11 1.00 0.97 1.05 1.12 1.20 0.99 0.97 1.03 0.99 1.31 1.50 1.75 1.88 1.69 1.83 1.76 1.80 1.73 1.53 1.54 1.42 1.60 1.57 1.66 1.67 1.73 1.71 1.93
4.82 4.73 4.66 4.75 4.25 3.65 3.01 2.48 2.15 1.87 1.57 1.37 1.27 1.26 1.18 1.10 1.03 1.12 1.00 1.00 0.89 1.01 1.15 1.25 1.47 1.41 1.38 1.49 1.33 1.54 1.46 1.35 1.37 1.30 1.18 1.21 1.26 1.14 1.30 1.46 1.53 1.35 1.61
3.25 3.36 3.66 3.86 3.56 3.07 2.64 2.12 1.87 1.78 1.59 1.41 1.27 1.15 1.16 1.09 1.18 1.24 1.01 1.22 1.09 1.08 1.13 1.16 1.26 1.26 1.16 1.15 1.51 1.71 1.39 1.08 1.04 0.94 0.92 1.03 1.10 1.13 1.32 1.51 1.51 1.46 1.32
2.33 2.65 3.02 3.26 3.10 2.56 2.31 2.06 1.89 1.78 1.66 1.60 1.45 1.32 1.17 1.13 1.15 1.05 1.21 1.09 1.10 1.19 1.23 1.26 1.33 1.32 1.17 1.14 1.46 1.77 1.56 1.52 1.38 0.77 0.85 0.95 1.03 1.21 1.27 1.27 1.38 1.54 1.34
2.05 2.20 2.25 2.51 2.70 2.44 2.29 2.20 2.08 1.95 1.73 1.75 1.65 1.47 1.17 1.07 1.09 1.11 1.10 1.08 1.22 1.04 1.25 1.40 1.36 1.41 1.36 1.23 1.24 1.49 1.51 1.47 1.31 1.06 0.86 0.82 0.93 1.17 1.20 1.26 1.23 1.37 1.46
1.43 1.71 1.96 2.20 2.37 2.31 2.18 1.97 1.80 1.60 1.48 1.46 1.48 1.48 1.35 1.23 1.08 1.07 1.07 1.17 1.27 1.11 1.36 1.12 1.16 1.36 1.44 1.27 1.18 1.05 1.08 1.23 1.33 1.30 1.11 0.89 0.89 0.99 1.04 1.01 1.05 1.24 1.30
0.98 1.37 1.79 2.12 2.35 2.25 1.96 1.78 1.75 1.64 1.58 1.51 1.42 1.56 1.43 1.35 1.16 1.02 1.09 1.17 1.19 1.12 1.18 1.19 1.40 1.31 1.28 1.25 1.22 1.15 1.15 1.10 0.96 1.07 1.17 1.17 1.09 0.85 0.76 0.83 0.95 1.09 1.14
0.79 1.02 1.30 1.62 1.90 1.94 1.78 1.69 1.71 1.71 1.68 1.54 1.34 1.30 1.22 1.20 1.17 1.13 1.19 1.21 1.15 1.07 1.09 1.12 1.23 1.25 1.31 1.37 1.24 1.10 1.14 1.10 1.00 1.06 0.95 0.93 1.00 0.78 0.68 0.71 0.79 0.90 0.98